Showing default

GEESAT 1-05, 52789

Orbit data source: Space-Track

GEESAT 1-05, 52789 is a payload satellite owned by GeeSpace (CN) in LEO that was launched on Thu, 02 Jun 2022 UTC via a CHANG ZHENG 2C launch vehicle from the Xichang Space Center, China (XSC). Payload-class satellites include a variety of spacecraft equipped with specific instruments for various scientific and technological missions. These include communications satellites like Starlink; space stations such as the ISS; scientific satellites like the Hubble; Earth observation satellites from companies like Planet Labs, Umbra, and HawkEye 360; GPS; miniature CubeSats for education and research; and military/defense satellites.

Loading next visibility...
Identifier
52789, 2022-058E
Orbit
LEO
Country
Flag of CNCN / PRC
Related business
Manufacturer
GWCG
Mission
Operational Commercial Navigation
Bus & Motor
GPS100, Unknown motor
Mass
130 kg wet, 130 kg dry
Launch date (UTC)
2022-06-02 (4 years ago)
Launch vehicle
CHANG ZHENG 2C
Launch site
Xichang Space Center, China (XSC)
Object type
Payload
Rocket body
Debris
Shape & HBR
Box + 2 Pan, 1.0 m
Radar Cross Section
0.833 m², Medium (>0.1 m² and < 1m²)

Expand to show TLE details & history
Last TLE update: 15 hours ago

TLE from 15 hours ago
0 GEESAT 1-05
1 52789U 22058E   25348.98378688  .00004350  00000-0  37979-3 0  9997
2 52789  49.9879 336.2494 0003000 101.0323 259.0959 14.98575805192567
Epoch: 2025-12-14T23:36Z
TLE epoch observation values (Epoch: 2025-12-14T23:36:39.186Z)
Latitude
-0.00002°
Longitude
-101.80276°
Altitude
572.237 km
Speed
7.576 km/s
True Right ascension
22h 24m 59s
True Declination
0° 00' 00"
Sunlit
Object was in daylight at epoch
Visualization orbit readout
Latitude
Unknown
Longitude
Unknown
Altitude
Unknown
Speed
Unknown
Apparent Right ascension
Unknown
Apparent Declination
Unknown
Sunlit
N/A
Visualization observer readout
Local Sidereal Time
13:23:55
Azimuth
Unknown
Elevation
Unknown
Doppler factor
Unknown
Orbital elements
Apogee altitude
574.146 km
Perigee altitude
569.976 km
Semi-major axis
6,950.198 km
Eccentricity
0.0003
Inclination
49.9879°
RAAN
336.2494°
Arg. of periapsis
101.0323°
True anomaly
259.06215°
Mean anomaly
259.0959°
Eccentric anomaly
259.07902°
Mean motion
3.74582 °/min
Orbital period
96.11 mins
BSTAR
0.00037979
Loading maneuver chart data...
Computing Atmospheric mass density...
Loading historical data...
Loading historical data...
Loading historical data...
Loading historical data...
Loading historical data...
Loading historical data...
Loading historical data...

Documentation

Showing up to 5 results
|